Powrót do katalogu

SITRO-AIS-53

AktywnyNawigacjaSSO
NORAD 59776·PAYLOAD·🇷🇺 Russia
Ta nazwa satelity nie została jeszcze potwierdzona przez oficjalne źródła.

Wystrzelony May 16, 2024 z Plesetsk Cosmodrome

Loading…

Następne Przeloty (najbliższe 24 godziny)

TLE

ŚwieżeSource: Space-Track

Epoka: Sep 14, 2026, 07:54 UTC

1 59776U 24092D   26257.32963316  .00017499  00000-0  44033-3 0  9993
2 59776  97.6694  34.3600 0006392 183.5657 176.5544 15.39981694129456

Śledź SITRO-AIS-53 w czasie rzeczywistym z AllMySat

Download on the App Store